Location: Iwkowa
(49.8210°N, 20.5761°E)
Time: 23:17:34
(UTC+02:00)

ISS - Pass Details

Date: 26 January 2019
Orbit: 411 x 421 km, 51.6° (Epoch: 21 October)

Event Time Altitude Azimuth Distance (km) Brightness Sun altitude
Rises 17:31:07 0° 234° (SW) 2,406 1.6 -11.2°
Reaches altitude 10° 17:33:15 10° 229° (SW) 1,544 0.2 -11.5°
Maximum altitude 17:36:38 50° 153° (SSE) 563 -3.2 -12.0°
Enters shadow 17:38:43 21° 84° (E) 1,055 -2.4 -12.3°
